Time,TemperatureF,DewpointF,PressureIn,WindDirection,WindDirectionDegrees,WindSpeedMPH,WindSpeedGustMPH,Humidity,HourlyPrecipIn,Conditions,Clouds,dailyrainin,SoftwareType,DateUTC
2013-03-11 00:03:00,48.0,45.0,30.22,ENE,71,0.0,0.0,91,0.00,,,0.00,,2013-03-11 04:03:00,
2013-03-11 00:12:00,48.0,45.0,30.22,ENE,71,0.0,0.0,91,0.00,,,0.00,,2013-03-11 04:12:00,
2013-03-11 00:22:00,48.0,46.0,30.22,ENE,71,0.0,1.0,92,0.00,,,0.00,,2013-03-11 04:22:00,
2013-03-11 00:33:00,48.0,45.0,30.22,ENE,71,0.0,0.0,91,0.00,,,0.00,,2013-03-11 04:33:00,
2013-03-11 00:42:00,48.0,45.0,30.22,ENE,71,0.0,0.0,91,0.00,,,0.00,,2013-03-11 04:42:00,
2013-03-11 00:52:00,48.0,46.0,30.21,ENE,71,0.0,2.0,92,0.00,,,0.00,,2013-03-11 04:52:00,
2013-03-11 01:03:00,49.0,47.0,30.20,ENE,69,0.0,2.0,93,0.00,,,0.00,,2013-03-11 05:03:00,
2013-03-11 01:12:00,49.0,47.0,30.20,ENE,69,0.0,2.0,93,0.00,,,0.00,,2013-03-11 05:12:00,
2013-03-11 01:22:00,50.0,48.0,30.20,NNE,21,0.0,3.0,93,0.00,,,0.00,,2013-03-11 05:22:00,
2013-03-11 01:32:00,50.0,48.0,30.20,NNE,21,0.0,3.0,93,0.00,,,0.00,,2013-03-11 05:32:00,
2013-03-11 01:43:00,50.0,48.0,30.20,NNE,21,0.0,3.0,93,0.00,,,0.00,,2013-03-11 05:43:00,
2013-03-11 01:52:00,51.0,49.0,30.19,NE,36,0.0,2.0,93,0.00,,,0.00,,2013-03-11 05:52:00,
2013-03-11 02:02:00,51.0,49.0,30.20,NNE,30,0.0,3.0,93,0.00,,,0.00,,2013-03-11 06:02:00,
2013-03-11 02:12:00,51.0,49.0,30.20,NNE,30,0.0,3.0,93,0.00,,,0.00,,2013-03-11 06:12:00,
2013-03-11 02:22:00,51.0,49.0,30.20,NNW,347,0.0,3.0,94,0.00,,,0.00,,2013-03-11 06:22:00,
2013-03-11 02:33:00,50.0,48.0,30.20,NNW,333,2.0,4.0,92,0.00,,,0.00,,2013-03-11 06:33:00,
2013-03-11 02:42:00,50.0,48.0,30.20,NNW,333,2.0,4.0,92,0.00,,,0.00,,2013-03-11 06:42:00,
2013-03-11 02:52:00,50.0,48.0,30.19,NNE,16,0.0,3.0,94,0.00,,,0.00,,2013-03-11 06:52:00,
2013-03-11 03:03:00,51.0,49.0,30.19,NNE,17,0.0,4.0,94,0.00,,,0.00,,2013-03-11 07:03:00,
2013-03-11 03:12:00,51.0,49.0,30.18,NE,34,0.0,4.0,94,0.00,,,0.00,,2013-03-11 07:12:00,
2013-03-11 03:22:00,51.0,49.0,30.18,NE,34,0.0,4.0,94,0.00,,,0.00,,2013-03-11 07:22:00,
2013-03-11 03:32:00,52.0,50.0,30.17,NNW,344,3.0,8.0,94,0.00,,,0.00,,2013-03-11 07:32:00,
2013-03-11 03:42:00,52.0,50.0,30.17,NNW,344,3.0,8.0,94,0.00,,,0.00,,2013-03-11 07:42:00,
2013-03-11 03:52:00,52.0,50.0,30.16,NNE,22,1.0,6.0,93,0.00,,,0.00,,2013-03-11 07:52:00,
2013-03-11 04:02:00,52.0,50.0,30.15,NNE,21,2.0,7.0,93,0.00,,,0.00,,2013-03-11 08:02:00,
2013-03-11 04:12:00,52.0,50.0,30.15,NNE,21,2.0,7.0,93,0.00,,,0.00,,2013-03-11 08:12:00,
2013-03-11 04:22:00,52.0,50.0,30.15,NE,46,2.0,8.0,92,0.00,,,0.00,,2013-03-11 08:22:00,
2013-03-11 04:33:00,52.0,50.0,30.15,NE,46,2.0,8.0,92,0.00,,,0.00,,2013-03-11 08:33:00,
2013-03-11 04:42:00,52.0,50.0,30.15,NE,46,2.0,8.0,92,0.00,,,0.00,,2013-03-11 08:42:00,
2013-03-11 04:52:00,52.0,50.0,30.14,NNE,30,1.0,7.0,92,0.00,,,0.00,,2013-03-11 08:52:00,
2013-03-11 05:02:00,52.0,50.0,30.14,NNE,30,2.0,7.0,92,0.00,,,0.00,,2013-03-11 09:02:00,
2013-03-11 05:12:00,52.0,50.0,30.14,NNE,30,2.0,7.0,92,0.00,,,0.00,,2013-03-11 09:12:00,
2013-03-11 05:23:00,52.0,50.0,30.14,ENE,61,0.0,7.0,92,0.00,,,0.00,,2013-03-11 09:23:00,
2013-03-11 05:32:00,52.0,50.0,30.14,NE,38,1.0,5.0,92,0.00,,,0.00,,2013-03-11 09:32:00,
2013-03-11 05:42:00,52.0,50.0,30.14,NE,38,1.0,5.0,92,0.00,,,0.00,,2013-03-11 09:42:00,
2013-03-11 05:52:00,52.0,50.0,30.14,NE,44,1.0,6.0,93,0.00,,,0.00,,2013-03-11 09:52:00,
2013-03-11 06:02:00,52.0,50.0,30.14,NE,44,1.0,6.0,93,0.00,,,0.00,,2013-03-11 10:02:00,
2013-03-11 06:12:00,52.0,50.0,30.14,NE,44,1.0,6.0,93,0.00,,,0.00,,2013-03-11 10:12:00,
2013-03-11 06:22:00,52.0,50.0,30.14,North,11,1.0,6.0,93,0.00,,,0.00,,2013-03-11 10:22:00,
2013-03-11 06:32:00,52.0,50.0,30.13,NE,37,2.0,7.0,93,0.00,,,0.00,,2013-03-11 10:32:00,
2013-03-11 06:42:00,52.0,50.0,30.13,NE,37,2.0,7.0,93,0.00,,,0.00,,2013-03-11 10:42:00,
2013-03-11 06:52:00,52.0,50.0,30.14,NNE,30,2.0,6.0,94,0.00,,,0.00,,2013-03-11 10:52:00,
2013-03-11 07:02:00,52.0,50.0,30.14,NE,55,2.0,6.0,94,0.00,,,0.00,,2013-03-11 11:02:00,
2013-03-11 07:12:00,52.0,50.0,30.14,NE,55,2.0,6.0,94,0.00,,,0.00,,2013-03-11 11:12:00,
2013-03-11 07:22:00,52.0,50.0,30.13,NE,42,2.0,6.0,94,0.00,,,0.00,,2013-03-11 11:22:00,
2013-03-11 07:33:00,52.0,50.0,30.13,NE,39,0.0,5.0,94,0.00,,,0.00,,2013-03-11 11:33:00,
2013-03-11 07:42:00,52.0,50.0,30.13,NE,39,0.0,5.0,94,0.00,,,0.00,,2013-03-11 11:42:00,
2013-03-11 07:52:00,52.0,51.0,30.12,NNE,19,1.0,4.0,95,0.00,,,0.00,,2013-03-11 11:52:00,
2013-03-11 08:02:00,52.0,51.0,30.13,NNE,20,1.0,5.0,95,0.00,,,0.00,,2013-03-11 12:02:00,
2013-03-11 08:12:00,52.0,51.0,30.13,NNE,20,1.0,5.0,95,0.00,,,0.00,,2013-03-11 12:12:00,
2013-03-11 08:22:00,53.0,52.0,30.13,NE,34,1.0,7.0,95,0.00,,,0.00,,2013-03-11 12:22:00,
2013-03-11 08:33:00,53.0,52.0,30.13,NNE,29,1.0,5.0,95,0.00,,,0.00,,2013-03-11 12:33:00,
2013-03-11 08:43:00,53.0,52.0,30.13,NNE,29,1.0,5.0,95,0.00,,,0.00,,2013-03-11 12:43:00,
2013-03-11 08:52:00,53.0,52.0,30.13,NNE,13,1.0,6.0,95,0.00,,,0.00,,2013-03-11 12:52:00,
2013-03-11 09:03:00,54.0,53.0,30.13,NNE,20,1.0,6.0,95,0.00,,,0.00,,2013-03-11 13:03:00,
2013-03-11 09:12:00,54.0,53.0,30.13,NNE,20,1.0,6.0,95,0.00,,,0.00,,2013-03-11 13:12:00,
2013-03-11 09:22:00,54.0,53.0,30.12,NE,42,0.0,5.0,95,0.00,,,0.00,,2013-03-11 13:22:00,
2013-03-11 09:33:00,55.0,54.0,30.13,NNE,13,2.0,6.0,95,0.00,,,0.00,,2013-03-11 13:33:00,
2013-03-11 09:42:00,55.0,54.0,30.13,NNE,13,2.0,6.0,95,0.00,,,0.00,,2013-03-11 13:42:00,
2013-03-11 09:52:00,55.0,53.0,30.13,NNE,25,1.0,6.0,93,0.00,,,0.00,,2013-03-11 13:52:00,
2013-03-11 10:02:00,56.0,54.0,30.12,NNE,15,1.0,6.0,93,0.00,,,0.00,,2013-03-11 14:02:00,
2013-03-11 10:12:00,56.0,54.0,30.12,NNE,15,1.0,6.0,93,0.00,,,0.00,,2013-03-11 14:12:00,
2013-03-11 10:22:00,57.0,54.0,30.12,ENE,67,2.0,7.0,91,0.00,,,0.00,,2013-03-11 14:22:00,
2013-03-11 10:33:00,57.0,54.0,30.11,NNE,31,0.0,4.0,89,0.00,,,0.00,,2013-03-11 14:33:00,
2013-03-11 10:42:00,57.0,54.0,30.11,NNE,31,0.0,4.0,89,0.00,,,0.00,,2013-03-11 14:42:00,
2013-03-11 10:52:00,57.0,54.0,30.11,ESE,117,1.0,5.0,89,0.00,,,0.00,,2013-03-11 14:52:00,
2013-03-11 11:03:00,58.0,54.0,30.11,East,88,0.0,4.0,87,0.00,,,0.00,,2013-03-11 15:03:00,
2013-03-11 11:13:00,58.0,54.0,30.11,East,88,0.0,4.0,87,0.00,,,0.00,,2013-03-11 15:13:00,
2013-03-11 11:22:00,60.0,55.0,30.11,North,360,0.0,3.0,85,0.00,,,0.00,,2013-03-11 15:22:00,
2013-03-11 11:32:00,59.0,54.0,30.11,NNE,32,1.0,3.0,82,0.00,,,0.00,,2013-03-11 15:32:00,
2013-03-11 11:42:00,59.0,54.0,30.11,NNE,32,1.0,3.0,82,0.00,,,0.00,,2013-03-11 15:42:00,
2013-03-11 11:53:00,59.0,54.0,30.11,ENE,70,1.0,4.0,83,0.00,,,0.00,,2013-03-11 15:53:00,
2013-03-11 12:03:00,60.0,54.0,30.11,ESE,105,0.0,3.0,82,0.00,,,0.00,,2013-03-11 16:03:00,
2013-03-11 12:12:00,60.0,54.0,30.11,ESE,105,0.0,3.0,82,0.00,,,0.00,,2013-03-11 16:12:00,
2013-03-11 12:22:00,61.0,55.0,30.11,NE,46,0.0,3.0,80,0.00,,,0.00,,2013-03-11 16:22:00,
2013-03-11 12:32:00,63.0,56.0,30.11,East,84,0.0,3.0,77,0.00,,,0.00,,2013-03-11 16:32:00,
2013-03-11 12:43:00,63.0,56.0,30.11,East,84,0.0,3.0,77,0.00,,,0.00,,2013-03-11 16:43:00,
2013-03-11 12:52:00,64.0,56.0,30.10,ESE,105,0.0,3.0,74,0.00,,,0.00,,2013-03-11 16:52:00,
2013-03-11 13:02:00,63.0,55.0,30.11,ESE,105,1.0,4.0,74,0.00,,,0.00,,2013-03-11 17:02:00,
2013-03-11 13:15:00,63.0,55.0,30.11,ESE,105,1.0,4.0,74,0.00,,,0.00,,2013-03-11 17:15:00,
2013-03-11 13:27:00,62.0,55.0,30.10,ESE,107,0.0,4.0,77,0.00,,,0.00,,2013-03-11 17:27:00,
2013-03-11 13:37:00,62.0,54.0,30.09,ESE,107,0.0,2.0,76,0.00,,,0.00,,2013-03-11 17:37:00,
2013-03-11 13:42:00,62.0,54.0,30.09,ESE,107,0.0,2.0,76,0.00,,,0.00,,2013-03-11 17:42:00,
2013-03-11 13:52:00,61.0,54.0,30.09,ESE,109,0.0,3.0,77,0.00,,,0.00,,2013-03-11 17:52:00,
2013-03-11 14:02:00,60.0,53.0,30.09,ESE,109,0.0,5.0,78,0.00,,,0.00,,2013-03-11 18:02:00,
2013-03-11 14:12:00,60.0,53.0,30.09,ESE,109,0.0,5.0,78,0.00,,,0.00,,2013-03-11 18:12:00,
2013-03-11 14:23:00,60.0,54.0,30.07,ESE,109,0.0,3.0,80,0.00,,,0.00,,2013-03-11 18:23:00,
2013-03-11 14:33:00,61.0,54.0,30.06,ESE,109,0.0,2.0,79,0.00,,,0.00,,2013-03-11 18:33:00,
2013-03-11 14:42:00,61.0,54.0,30.06,ESE,109,0.0,2.0,79,0.00,,,0.00,,2013-03-11 18:42:00,
2013-03-11 14:52:00,62.0,55.0,30.06,ESE,109,0.0,2.0,77,0.00,,,0.00,,2013-03-11 18:52:00,
2013-03-11 15:02:00,62.0,55.0,30.05,ESE,109,0.0,2.0,77,0.00,,,0.00,,2013-03-11 19:02:00,
2013-03-11 15:12:00,62.0,55.0,30.05,ESE,109,0.0,2.0,77,0.00,,,0.00,,2013-03-11 19:12:00,
2013-03-11 15:22:00,61.0,54.0,30.04,ESE,109,1.0,3.0,77,0.00,,,0.00,,2013-03-11 19:22:00,
2013-03-11 15:33:00,61.0,55.0,30.04,SE,144,4.0,8.0,80,0.00,,,0.00,,2013-03-11 19:33:00,
2013-03-11 15:42:00,61.0,55.0,30.04,SE,144,4.0,8.0,80,0.00,,,0.00,,2013-03-11 19:42:00,
2013-03-11 15:52:00,62.0,55.0,30.03,ESE,116,1.0,4.0,77,0.00,,,0.00,,2013-03-11 19:52:00,
2013-03-11 16:02:00,61.0,54.0,30.03,SSE,148,1.0,4.0,79,0.00,,,0.00,,2013-03-11 20:02:00,
2013-03-11 16:12:00,61.0,54.0,30.03,SSE,148,1.0,4.0,79,0.00,,,0.00,,2013-03-11 20:12:00,
2013-03-11 16:22:00,60.0,54.0,30.02,SE,124,0.0,3.0,81,0.00,,,0.00,,2013-03-11 20:22:00,
2013-03-11 16:32:00,60.0,54.0,30.02,NE,49,0.0,4.0,82,0.00,,,0.00,,2013-03-11 20:32:00,
2013-03-11 16:43:00,60.0,54.0,30.02,NE,49,0.0,4.0,82,0.00,,,0.00,,2013-03-11 20:43:00,
2013-03-11 16:52:00,60.0,54.0,30.02,South,186,2.0,6.0,82,0.00,,,0.00,,2013-03-11 20:52:00,
2013-03-11 17:03:00,60.0,55.0,30.01,SE,145,4.0,7.0,84,0.00,,,0.00,,2013-03-11 21:03:00,
2013-03-11 17:12:00,60.0,55.0,30.01,SE,145,4.0,7.0,84,0.00,,,0.00,,2013-03-11 21:12:00,
2013-03-11 17:22:00,60.0,55.0,30.01,SSE,148,2.0,6.0,85,0.00,,,0.00,,2013-03-11 21:22:00,
2013-03-11 17:33:00,60.0,56.0,30.01,SE,134,0.0,3.0,86,0.00,,,0.00,,2013-03-11 21:33:00,
2013-03-11 17:44:00,60.0,56.0,30.01,SE,134,0.0,3.0,86,0.00,,,0.00,,2013-03-11 21:44:00,
2013-03-11 17:52:00,61.0,57.0,30.00,SE,134,0.0,1.0,86,0.00,,,0.00,,2013-03-11 21:52:00,
2013-03-11 18:03:00,60.0,55.0,30.01,SE,134,0.0,2.0,84,0.00,,,0.00,,2013-03-11 22:03:00,
2013-03-11 18:12:00,60.0,55.0,30.01,SE,134,0.0,2.0,84,0.00,,,0.00,,2013-03-11 22:12:00,
2013-03-11 18:22:00,59.0,54.0,30.01,SE,134,0.0,1.0,84,0.00,,,0.00,,2013-03-11 22:22:00,
2013-03-11 18:32:00,59.0,54.0,30.01,SE,134,0.0,1.0,84,0.00,,,0.00,,2013-03-11 22:32:00,
2013-03-11 18:43:00,59.0,54.0,30.01,SE,134,0.0,1.0,84,0.00,,,0.00,,2013-03-11 22:43:00,
2013-03-11 18:52:00,58.0,54.0,30.00,NNE,28,0.0,5.0,86,0.00,,,0.00,,2013-03-11 22:52:00,
2013-03-11 19:03:00,58.0,54.0,30.01,NNE,30,0.0,3.0,86,0.00,,,0.00,,2013-03-11 23:03:00,
2013-03-11 19:12:00,58.0,54.0,30.01,NNE,30,0.0,3.0,86,0.00,,,0.00,,2013-03-11 23:12:00,
2013-03-11 19:22:00,59.0,55.0,30.00,NE,46,0.0,1.0,86,0.00,,,0.00,,2013-03-11 23:22:00,
2013-03-11 19:32:00,58.0,54.0,29.98,East,88,0.0,3.0,86,0.00,,,0.00,,2013-03-11 23:32:00,
2013-03-11 19:43:00,58.0,54.0,29.98,East,88,0.0,3.0,86,0.00,,,0.00,,2013-03-11 23:43:00,
2013-03-11 19:52:00,58.0,54.0,29.98,ENE,71,0.0,2.0,87,0.00,,,0.00,,2013-03-11 23:52:00,
2013-03-11 20:02:00,58.0,54.0,29.98,East,86,0.0,1.0,88,0.00,,,0.00,,2013-03-12 00:02:00,
2013-03-11 20:12:00,58.0,54.0,29.98,East,86,0.0,1.0,88,0.00,,,0.00,,2013-03-12 00:12:00,
2013-03-11 20:23:00,58.0,54.0,29.99,ESE,117,2.0,5.0,88,0.00,,,0.00,,2013-03-12 00:23:00,
2013-03-11 20:33:00,58.0,55.0,29.99,ESE,117,1.0,7.0,89,0.00,,,0.00,,2013-03-12 00:33:00,
2013-03-11 20:42:00,58.0,55.0,29.99,ESE,117,1.0,7.0,89,0.00,,,0.00,,2013-03-12 00:42:00,
2013-03-11 20:53:00,57.0,54.0,29.98,East,94,1.0,4.0,89,0.00,,,0.00,,2013-03-12 00:53:00,
2013-03-11 21:02:00,57.0,54.0,29.97,ESE,120,1.0,4.0,90,0.00,,,0.00,,2013-03-12 01:02:00,
2013-03-11 21:12:00,57.0,54.0,29.97,ESE,120,1.0,4.0,90,0.00,,,0.00,,2013-03-12 01:12:00,
2013-03-11 21:22:00,57.0,54.0,29.96,ESE,111,1.0,4.0,90,0.00,,,0.00,,2013-03-12 01:22:00,
2013-03-11 21:33:00,57.0,54.0,29.95,East,84,2.0,7.0,90,0.00,,,0.00,,2013-03-12 01:33:00,
2013-03-11 21:42:00,57.0,54.0,29.95,East,84,2.0,7.0,90,0.00,,,0.00,,2013-03-12 01:42:00,
2013-03-11 21:52:00,57.0,54.0,29.95,ESE,119,3.0,7.0,90,0.00,,,0.00,,2013-03-12 01:52:00,
2013-03-11 22:02:00,57.0,54.0,29.94,SE,137,3.0,9.0,89,0.00,,,0.00,,2013-03-12 02:02:00,
2013-03-11 22:12:00,57.0,54.0,29.94,SE,137,3.0,9.0,89,0.00,,,0.00,,2013-03-12 02:12:00,
2013-03-11 22:22:00,58.0,55.0,29.95,SE,132,4.0,8.0,89,0.00,,,0.00,,2013-03-12 02:22:00,
2013-03-11 22:32:00,58.0,54.0,29.95,SE,128,4.0,8.0,88,0.00,,,0.00,,2013-03-12 02:32:00,
2013-03-11 22:42:00,58.0,54.0,29.95,SE,128,4.0,8.0,88,0.00,,,0.00,,2013-03-12 02:42:00,
2013-03-11 22:52:00,58.0,55.0,29.95,SE,128,3.0,7.0,89,0.00,,,0.00,,2013-03-12 02:52:00,
2013-03-11 23:02:00,58.0,55.0,29.96,SE,145,4.0,11.0,89,0.00,,,0.00,,2013-03-12 03:02:00,
2013-03-11 23:12:00,58.0,55.0,29.96,SE,145,4.0,11.0,89,0.00,,,0.00,,2013-03-12 03:12:00,
2013-03-11 23:22:00,58.0,55.0,29.95,South,169,2.0,6.0,90,0.00,,,0.00,,2013-03-12 03:22:00,
2013-03-11 23:32:00,58.0,55.0,29.94,SE,142,3.0,7.0,90,0.00,,,0.00,,2013-03-12 03:32:00,
2013-03-11 23:42:00,58.0,55.0,29.94,SE,142,3.0,7.0,90,0.00,,,0.00,,2013-03-12 03:42:00,
2013-03-11 23:52:00,58.0,55.0,29.92,ESE,120,3.0,6.0,90,0.00,,,0.00,,2013-03-12 03:52:00,